CST,Max TemperatureF,Mean TemperatureF,Min TemperatureF,Max Dew PointF,MeanDew PointF,Min DewpointF,Max Humidity, Mean Humidity, Min Humidity, Max Sea Level PressureIn, Mean Sea Level PressureIn, Min Sea Level PressureIn, Max VisibilityMiles, Mean VisibilityMiles, Min VisibilityMiles, Max Wind SpeedMPH, Mean Wind SpeedMPH, Max Gust SpeedMPH,PrecipitationIn, CloudCover, Events, WindDirDegrees
2012-2-1,64,48,31,33,27,23,75,48,21,30.21,30.15,30.11,10,10,10,8,4,12,0.00,4,,346
2012-2-2,64,49,33,46,32,24,70,50,29,30.24,30.11,29.91,10,10,10,31,11,40,0.00,6,,126
2012-2-3,57,51,45,54,48,44,100,84,67,30.03,29.97,29.86,10,6,1,36,10,43,2.86,8,Rain-Thunderstorm,72
2012-2-4,45,40,35,43,35,30,100,91,82,30.39,30.21,30.01,10,8,2,29,17,35,0.01,8,Rain,338
2012-2-5,49,39,29,30,26,22,85,60,34,30.48,30.42,30.36,10,10,10,20,10,24,0.00,3,,341
2012-2-6,52,38,24,31,27,22,92,66,39,30.37,30.28,30.21,10,10,10,14,4,18,0.00,3,Rain,204
2012-2-7,46,38,30,39,35,29,100,85,70,30.51,30.35,30.23,10,6,1,21,11,29,0.10,8,Rain-Snow,354
2012-2-8,35,32,28,31,29,28,100,91,82,30.55,30.47,30.38,10,8,6,16,6,20,0.00,8,,6
2012-2-9,40,36,32,34,33,30,100,88,76,30.37,30.23,30.13,8,4,0,13,6,15,0.14,8,Rain-Snow,200
2012-2-10,34,26,18,34,19,3,100,68,35,30.54,30.28,30.09,10,9,4,30,18,38,0.00,4,,343
2012-2-11,28,20,12,5,2,0,61,49,36,30.80,30.71,30.55,10,10,10,26,11,35,0.00,3,,30
2012-2-12,33,24,14,25,14,6,92,69,46,30.70,30.37,30.04,10,7,1,26,13,32,0.06,6,Snow,160
2012-2-13,36,30,24,34,30,23,100,91,82,30.06,29.84,29.70,10,5,2,33,16,41,0.03,7,Snow,202
2012-2-14,47,34,20,35,30,20,100,83,65,29.96,29.90,29.85,10,7,4,15,6,18,0.00,5,,181
2012-2-15,49,43,37,49,41,34,100,93,85,30.16,29.90,29.80,10,4,0,22,10,28,0.02,8,Fog,17
2012-2-16,53,40,27,34,29,23,96,64,32,30.36,30.26,30.17,10,10,10,16,5,19,0.00,2,,11
2012-2-17,58,43,27,43,36,26,100,76,51,30.20,30.13,30.06,10,9,8,14,5,17,T,5,,185
2012-2-18,49,42,34,40,27,24,79,61,42,30.21,30.15,30.10,10,10,7,21,11,25,T,7,Rain,35
2012-2-19,54,40,25,37,31,22,92,69,46,30.13,30.05,29.93,10,10,10,21,8,25,0.00,2,,157
2012-2-20,56,48,40,45,40,29,89,78,67,29.94,29.74,29.56,10,9,2,43,21,55,0.18,7,Rain-Hail-Thunderstorm,205
2012-2-21,56,42,28,29,26,23,78,54,30,30.04,29.94,29.79,10,10,10,23,8,30,0.00,2,,236
2012-2-22,74,52,30,42,34,27,85,53,20,29.79,29.59,29.33,10,10,10,21,10,26,0.00,4,,228
2012-2-23,57,46,35,39,32,22,85,62,38,29.98,29.55,29.22,10,10,10,35,17,46,0.00,4,,337
2012-2-24,52,41,29,25,22,20,72,50,28,30.32,30.20,30.00,10,10,10,24,13,31,0.00,0,,310
2012-2-25,60,42,24,29,24,20,81,53,25,30.34,30.14,29.87,10,10,10,36,16,44,0.00,0,,164
2012-2-26,64,51,38,32,23,12,64,40,15,30.24,30.01,29.86,10,10,10,30,12,39,0.00,0,,229
2012-2-27,54,43,32,28,23,19,64,47,30,30.47,30.34,30.20,10,10,10,20,12,24,0.00,6,,62
2012-2-28,67,54,41,61,49,27,93,63,32,30.18,29.77,29.51,10,8,2,39,18,51,0.20,7,Rain-Thunderstorm,177
2012-2-29,64,49,34,30,25,13,82,48,14,29.94,29.88,29.74,10,9,6,26,9,35,0.00,0,,268